Location: Maccacari
(45.1333°N, 11.1333°E)
Time: 07:04:40
(UTC+00:00)

CZ-4 R/B - Pass Details

Date: 18 September 2020
Orbit: 530 x 600 km, 97.7° (Epoch: 29 October)

Event Time Altitude Azimuth Distance (km) Brightness Sun altitude
Rises 18:43:29 0° 201° (SSW) 2,834 5.0 -15.3°
Reaches altitude 10° 18:46:05 10° 217° (SW) 1,938 4.3 -15.7°
Maximum altitude 18:49:18 21° 267° (W) 1,364 4.2 -16.2°
Drops below altitude 10° 18:52:31 10° 317° (NW) 1,944 5.1 -16.8°
Sets 18:55:09 0° 333° (NNW) 2,845 5.7 -17.2°
